Time,TemperatureF,DewpointF,PressureIn,WindDirection,WindDirectionDegrees,WindSpeedMPH,WindSpeedGustMPH,Humidity,HourlyPrecipIn,Conditions,Clouds,dailyrainin,SoftwareType,DateUTC
2013-07-14 00:00:00,75.3,67.6,30.18,SSE,165,0.0,0.0,77,0.00,,,0.00,VWS V14.01,2013-07-14 04:00:00,
2013-07-14 00:01:00,75.3,67.6,30.18,SSE,165,0.0,0.0,77,0.00,,,0.00,VWS V14.01,2013-07-14 04:01:00,
2013-07-14 00:02:00,75.3,67.6,30.18,SSE,165,0.0,0.0,77,0.00,,,0.00,VWS V14.01,2013-07-14 04:02:00,
2013-07-14 00:03:00,75.3,67.6,30.18,SSE,165,0.0,0.0,77,0.00,,,0.00,VWS V14.01,2013-07-14 04:03:00,
2013-07-14 00:04:00,75.3,67.6,30.18,SSE,165,0.0,0.0,77,0.00,,,0.00,VWS V14.01,2013-07-14 04:04:00,
2013-07-14 00:06:00,75.3,67.6,30.18,SSE,165,0.0,0.0,77,0.00,,,0.00,VWS V14.01,2013-07-14 04:06:00,
2013-07-14 06:45:00,74.9,72.8,30.24,NNW,335,0.0,0.0,93,0.00,,,0.00,VWS V14.01,2013-07-14 10:45:00,
2013-07-14 06:50:00,74.9,72.8,30.24,NNW,335,0.0,0.0,93,0.00,,,0.00,VWS V14.01,2013-07-14 10:50:00,
2013-07-14 06:55:00,75.1,73.0,30.24,NNW,335,0.0,0.0,93,0.00,,,0.00,VWS V14.01,2013-07-14 10:55:00,
2013-07-14 07:00:00,75.3,73.1,30.24,NNW,335,0.0,0.0,93,0.00,,,0.00,VWS V14.01,2013-07-14 11:00:00,
2013-07-14 07:05:00,75.5,73.3,30.24,NNW,335,0.0,0.0,93,0.00,,,0.00,VWS V14.01,2013-07-14 11:05:00,
2013-07-14 07:10:00,75.7,73.5,30.24,NNW,335,0.0,0.0,93,0.00,,,0.00,VWS V14.01,2013-07-14 11:10:00,
2013-07-14 07:15:00,75.7,73.5,30.24,NNW,335,0.0,0.0,93,0.00,,,0.00,VWS V14.01,2013-07-14 11:15:00,
2013-07-14 07:20:00,75.8,73.3,30.24,SE,133,0.0,0.0,92,0.00,,,0.00,VWS V14.01,2013-07-14 11:20:00,
2013-07-14 07:25:00,76.0,73.5,30.24,SE,133,0.0,0.0,92,0.00,,,0.00,VWS V14.01,2013-07-14 11:25:00,
2013-07-14 07:30:00,76.2,73.4,30.24,SE,133,0.0,0.0,91,0.00,,,0.00,VWS V14.01,2013-07-14 11:30:00,
2013-07-14 07:35:00,76.6,73.4,30.24,SSE,164,0.0,0.0,90,0.00,,,0.00,VWS V14.01,2013-07-14 11:35:00,
2013-07-14 07:40:00,76.7,73.3,30.24,SW,221,0.0,0.0,89,0.00,,,0.00,VWS V14.01,2013-07-14 11:40:00,
2013-07-14 07:45:00,76.9,71.4,30.24,South,175,0.0,2.7,83,0.00,,,0.00,VWS V14.01,2013-07-14 11:45:00,
2013-07-14 07:50:00,77.5,71.9,30.24,SW,233,0.0,0.0,83,0.00,,,0.00,VWS V14.01,2013-07-14 11:50:00,
2013-07-14 07:55:00,77.8,71.9,30.24,WSW,246,0.0,0.0,82,0.00,,,0.00,VWS V14.01,2013-07-14 11:55:00,
2013-07-14 08:00:00,78.2,72.2,30.24,NNW,338,3.1,3.1,82,0.00,,,0.00,VWS V14.01,2013-07-14 12:00:00,
2013-07-14 08:05:00,78.4,71.7,30.24,SSW,196,0.0,0.0,80,0.00,,,0.00,VWS V14.01,2013-07-14 12:05:00,
2013-07-14 08:10:00,78.5,70.7,30.24,SSW,212,0.0,0.0,77,0.00,,,0.00,VWS V14.01,2013-07-14 12:10:00,
2013-07-14 08:15:00,78.9,70.7,30.24,SSW,212,0.0,0.0,76,0.00,,,0.00,VWS V14.01,2013-07-14 12:15:00,
2013-07-14 08:21:00,79.4,70.8,30.24,SSW,212,0.0,0.0,75,0.00,,,0.00,VWS V14.01,2013-07-14 12:21:00,
2013-07-14 08:26:00,79.6,69.8,30.24,West,279,0.0,0.0,72,0.00,,,0.00,VWS V14.01,2013-07-14 12:26:00,
2013-07-14 08:31:00,79.8,68.3,30.24,NNW,328,0.0,0.0,68,0.00,,,0.00,VWS V14.01,2013-07-14 12:31:00,
2013-07-14 08:36:00,79.8,67.4,30.24,NW,315,0.0,2.2,66,0.00,,,0.00,VWS V14.01,2013-07-14 12:36:00,
2013-07-14 08:41:00,79.8,66.1,30.24,NNW,348,0.0,0.0,63,0.00,,,0.00,VWS V14.01,2013-07-14 12:41:00,
2013-07-14 08:46:00,80.5,66.8,30.24,NNW,332,0.0,0.0,63,0.00,,,0.00,VWS V14.01,2013-07-14 12:46:00,
2013-07-14 08:51:00,81.2,67.0,30.24,WSW,251,0.0,2.2,62,0.00,,,0.00,VWS V14.01,2013-07-14 12:51:00,
2013-07-14 08:56:00,81.6,65.9,30.24,NNE,15,0.0,0.0,59,0.00,,,0.00,VWS V14.01,2013-07-14 12:56:00,
2013-07-14 09:01:00,81.6,65.4,30.24,NNW,330,0.0,0.0,58,0.00,,,0.00,VWS V14.01,2013-07-14 13:01:00,
2013-07-14 09:06:00,81.2,65.1,30.24,WNW,303,0.0,0.0,58,0.00,,,0.00,VWS V14.01,2013-07-14 13:06:00,
2013-07-14 09:11:00,81.6,64.9,30.24,South,182,0.0,0.0,57,0.00,,,0.00,VWS V14.01,2013-07-14 13:11:00,
2013-07-14 09:16:00,82.0,64.7,30.24,NW,324,0.0,0.0,56,0.00,,,0.00,VWS V14.01,2013-07-14 13:16:00,
2013-07-14 09:21:00,81.8,63.5,30.24,NW,304,3.6,3.6,54,0.00,,,0.00,VWS V14.01,2013-07-14 13:21:00,
2013-07-14 09:26:00,81.1,63.4,30.24,NW,320,0.0,2.7,55,0.00,,,0.00,VWS V14.01,2013-07-14 13:26:00,
2013-07-14 09:31:00,80.5,63.9,30.24,WNW,301,0.0,0.0,57,0.00,,,0.00,VWS V14.01,2013-07-14 13:31:00,
2013-07-14 09:36:00,80.7,64.6,30.24,NNW,328,5.8,5.8,58,0.00,,,0.00,VWS V14.01,2013-07-14 13:36:00,
2013-07-14 09:41:00,80.9,64.7,30.24,SE,138,3.1,3.1,58,0.00,,,0.00,VWS V14.01,2013-07-14 13:41:00,
2013-07-14 09:46:00,80.9,64.2,30.24,NNW,336,0.0,3.1,57,0.00,,,0.00,VWS V14.01,2013-07-14 13:46:00,
2013-07-14 09:51:00,81.1,64.4,30.24,SSE,149,0.0,0.0,57,0.00,,,0.00,VWS V14.01,2013-07-14 13:51:00,
2013-07-14 09:56:00,81.4,63.7,30.24,WSW,253,0.0,0.0,55,0.00,,,0.00,VWS V14.01,2013-07-14 13:56:00,
2013-07-14 10:01:00,82.0,64.2,30.24,NNW,337,0.0,0.0,55,0.00,,,0.00,VWS V14.01,2013-07-14 14:01:00,
2013-07-14 10:06:00,82.3,63.0,30.24,NW,326,0.0,0.0,52,0.00,,,0.00,VWS V14.01,2013-07-14 14:06:00,
2013-07-14 10:11:00,83.2,62.7,30.24,NNW,330,0.0,0.0,50,0.00,,,0.00,VWS V14.01,2013-07-14 14:11:00,
2013-07-14 10:16:00,83.9,62.2,30.24,NW,326,2.7,3.1,48,0.00,,,0.00,VWS V14.01,2013-07-14 14:16:00,
2013-07-14 10:21:00,83.8,62.0,30.24,NW,315,0.0,0.0,48,0.00,,,0.00,VWS V14.01,2013-07-14 14:21:00,
2013-07-14 10:26:00,83.9,62.8,30.24,WNW,294,0.0,0.0,49,0.00,,,0.00,VWS V14.01,2013-07-14 14:26:00,
2013-07-14 10:31:00,84.3,62.5,30.24,West,281,0.0,3.1,48,0.00,,,0.00,VWS V14.01,2013-07-14 14:31:00,
2013-07-14 10:37:00,84.7,62.8,30.24,NW,324,0.0,0.0,48,0.00,,,0.00,VWS V14.01,2013-07-14 14:37:00,
2013-07-14 10:42:00,84.5,61.5,30.24,NNE,31,0.0,3.6,46,0.00,,,0.00,VWS V14.01,2013-07-14 14:42:00,
2013-07-14 10:47:00,84.3,61.9,30.24,NNW,327,0.0,2.7,47,0.00,,,0.00,VWS V14.01,2013-07-14 14:47:00,
2013-07-14 10:52:00,85.0,62.5,30.24,South,187,0.0,0.0,47,0.00,,,0.00,VWS V14.01,2013-07-14 14:52:00,
2013-07-14 10:57:00,86.1,62.9,30.24,NE,46,0.0,2.7,46,0.00,,,0.00,VWS V14.01,2013-07-14 14:57:00,
2013-07-14 11:02:00,87.5,63.0,30.24,NNW,332,0.0,0.0,44,0.00,,,0.00,VWS V14.01,2013-07-14 15:02:00,
2013-07-14 11:07:00,87.4,61.5,30.24,NW,324,0.0,2.7,42,0.00,,,0.00,VWS V14.01,2013-07-14 15:07:00,
2013-07-14 11:12:00,86.8,61.7,30.24,NW,315,4.9,4.9,43,0.00,,,0.00,VWS V14.01,2013-07-14 15:12:00,
2013-07-14 11:17:00,86.3,61.2,30.24,NW,313,3.6,5.8,43,0.00,,,0.00,VWS V14.01,2013-07-14 15:17:00,
2013-07-14 11:22:00,86.1,61.7,30.24,South,191,0.0,3.6,44,0.00,,,0.00,VWS V14.01,2013-07-14 15:22:00,
2013-07-14 11:27:00,86.6,62.2,30.24,SSE,156,4.0,4.0,44,0.00,,,0.00,VWS V14.01,2013-07-14 15:27:00,
2013-07-14 11:32:00,87.0,61.2,30.24,NW,317,0.0,0.0,42,0.00,,,0.00,VWS V14.01,2013-07-14 15:32:00,
2013-07-14 11:37:00,86.6,61.5,30.24,NNW,329,0.0,2.2,43,0.00,,,0.00,VWS V14.01,2013-07-14 15:37:00,
2013-07-14 11:42:00,86.5,61.3,30.24,NNW,330,0.0,3.1,43,0.00,,,0.00,VWS V14.01,2013-07-14 15:42:00,
2013-07-14 11:47:00,86.6,61.5,30.24,NW,314,3.6,4.0,43,0.00,,,0.00,VWS V14.01,2013-07-14 15:47:00,
2013-07-14 11:52:00,86.8,61.7,30.24,South,169,0.0,0.0,43,0.00,,,0.00,VWS V14.01,2013-07-14 15:52:00,
2013-07-14 11:57:00,87.5,62.3,30.24,NW,314,0.0,0.0,43,0.00,,,0.00,VWS V14.01,2013-07-14 15:57:00,
2013-07-14 12:02:00,87.4,61.5,30.24,WNW,285,3.1,3.6,42,0.00,,,0.00,VWS V14.01,2013-07-14 16:02:00,
2013-07-14 12:07:00,87.2,61.3,30.24,NNW,330,3.1,3.1,42,0.00,,,0.00,VWS V14.01,2013-07-14 16:07:00,
2013-07-14 12:12:00,87.2,62.0,30.24,North,6,3.1,3.1,43,0.00,,,0.00,VWS V14.01,2013-07-14 16:12:00,
2013-07-14 12:17:00,87.7,61.8,30.24,SW,236,3.6,3.6,42,0.00,,,0.00,VWS V14.01,2013-07-14 16:17:00,
2013-07-14 12:22:00,88.6,59.8,30.21,SW,215,0.0,0.0,38,0.00,,,0.00,VWS V14.01,2013-07-14 16:22:00,
2013-07-14 12:27:00,89.3,60.4,30.21,NW,314,2.7,4.0,38,0.00,,,0.00,VWS V14.01,2013-07-14 16:27:00,
2013-07-14 12:32:00,89.3,60.4,30.21,NW,321,0.0,0.0,38,0.00,,,0.00,VWS V14.01,2013-07-14 16:32:00,
2013-07-14 12:38:00,88.6,59.8,30.21,NW,316,3.6,4.9,38,0.00,,,0.00,VWS V14.01,2013-07-14 16:38:00,
2013-07-14 12:43:00,87.7,60.4,30.21,SSE,160,0.0,2.7,40,0.00,,,0.00,VWS V14.01,2013-07-14 16:43:00,
2013-07-14 12:48:00,87.7,60.4,30.21,NNW,330,0.0,0.0,40,0.00,,,0.00,VWS V14.01,2013-07-14 16:48:00,
2013-07-14 12:53:00,87.7,59.7,30.21,NW,321,3.1,5.4,39,0.00,,,0.00,VWS V14.01,2013-07-14 16:53:00,
2013-07-14 12:58:00,87.5,61.0,30.21,NW,319,0.0,3.6,41,0.00,,,0.00,VWS V14.01,2013-07-14 16:58:00,
2013-07-14 13:03:00,87.5,61.0,30.21,NNW,331,0.0,0.0,41,0.00,,,0.00,VWS V14.01,2013-07-14 17:03:00,
2013-07-14 13:08:00,87.7,61.8,30.21,NW,310,0.0,2.7,42,0.00,,,0.00,VWS V14.01,2013-07-14 17:08:00,
2013-07-14 13:13:00,87.7,61.1,30.21,NNW,332,0.0,0.0,41,0.00,,,0.00,VWS V14.01,2013-07-14 17:13:00,
2013-07-14 13:18:00,87.5,60.3,30.21,NNW,329,0.0,0.0,40,0.00,,,0.00,VWS V14.01,2013-07-14 17:18:00,
2013-07-14 13:23:00,87.2,59.9,30.21,WNW,303,0.0,0.0,40,0.00,,,0.00,VWS V14.01,2013-07-14 17:23:00,
2013-07-14 13:28:00,87.2,61.3,30.21,NW,307,0.0,0.0,42,0.00,,,0.00,VWS V14.01,2013-07-14 17:28:00,
2013-07-14 13:33:00,87.2,61.3,30.21,NNW,329,0.0,0.0,42,0.00,,,0.00,VWS V14.01,2013-07-14 17:33:00,
2013-07-14 13:38:00,87.5,61.0,30.21,NNW,337,3.1,3.1,41,0.00,,,0.00,VWS V14.01,2013-07-14 17:38:00,
2013-07-14 13:43:00,87.9,61.3,30.21,NW,311,0.0,0.0,41,0.00,,,0.00,VWS V14.01,2013-07-14 17:43:00,
2013-07-14 13:48:00,88.4,60.3,30.21,WNW,302,0.0,0.0,39,0.00,,,0.00,VWS V14.01,2013-07-14 17:48:00,
2013-07-14 13:53:00,89.3,61.2,30.21,NNW,337,4.0,4.9,39,0.00,,,0.00,VWS V14.01,2013-07-14 17:53:00,
2013-07-14 13:58:00,89.5,59.8,30.21,NNW,328,0.0,0.0,37,0.00,,,0.00,VWS V14.01,2013-07-14 17:58:00,
2013-07-14 14:03:00,89.2,59.5,30.21,NNW,329,3.1,3.6,37,0.00,,,0.00,VWS V14.01,2013-07-14 18:03:00,
2013-07-14 14:08:00,89.3,59.7,30.21,ENE,75,0.0,3.1,37,0.00,,,0.00,VWS V14.01,2013-07-14 18:08:00,
2013-07-14 14:13:00,89.7,60.0,30.21,NW,311,2.7,3.1,37,0.00,,,0.00,VWS V14.01,2013-07-14 18:13:00,
2013-07-14 14:18:00,90.1,59.5,30.21,NW,315,3.6,4.9,36,0.00,,,0.00,VWS V14.01,2013-07-14 18:18:00,
2013-07-14 14:23:00,90.4,59.9,30.21,SW,230,4.0,4.0,36,0.00,,,0.00,VWS V14.01,2013-07-14 18:23:00,
2013-07-14 14:28:00,91.0,57.9,30.21,SSW,199,0.0,0.0,33,0.00,,,0.00,VWS V14.01,2013-07-14 18:28:00,
2013-07-14 14:33:00,92.2,59.0,30.21,NNW,333,0.0,3.1,33,0.00,,,0.00,VWS V14.01,2013-07-14 18:33:00,
2013-07-14 14:38:00,92.4,59.2,30.21,WSW,246,3.1,4.9,33,0.00,,,0.00,VWS V14.01,2013-07-14 18:38:00,
2013-07-14 14:43:00,92.2,58.1,30.21,SE,133,0.0,0.0,32,0.00,,,0.00,VWS V14.01,2013-07-14 18:43:00,
2013-07-14 14:48:00,92.6,58.5,30.21,WNW,302,2.2,2.2,32,0.00,,,0.00,VWS V14.01,2013-07-14 18:48:00,
2013-07-14 14:54:00,92.9,58.8,30.21,NNW,330,0.0,0.0,32,0.00,,,0.00,VWS V14.01,2013-07-14 18:54:00,
2013-07-14 14:59:00,92.0,58.0,30.21,WNW,287,0.0,0.0,32,0.00,,,0.00,VWS V14.01,2013-07-14 18:59:00,
2013-07-14 15:04:00,91.5,58.4,30.18,West,277,0.0,0.0,33,0.00,,,0.00,VWS V14.01,2013-07-14 19:04:00,
2013-07-14 15:09:00,91.5,58.4,30.18,NW,322,2.7,2.7,33,0.00,,,0.00,VWS V14.01,2013-07-14 19:09:00,
2013-07-14 15:14:00,91.0,57.9,30.18,NNW,341,0.0,0.0,33,0.00,,,0.00,VWS V14.01,2013-07-14 19:14:00,
2013-07-14 15:19:00,91.1,58.0,30.18,NW,313,2.7,4.9,33,0.00,,,0.00,VWS V14.01,2013-07-14 19:19:00,
2013-07-14 15:24:00,91.0,57.9,30.18,WNW,298,0.0,2.7,33,0.00,,,0.00,VWS V14.01,2013-07-14 19:24:00,
2013-07-14 15:29:00,90.8,57.7,30.18,North,357,0.0,0.0,33,0.00,,,0.00,VWS V14.01,2013-07-14 19:29:00,
2013-07-14 15:34:00,91.0,57.9,30.18,NW,315,0.0,3.6,33,0.00,,,0.00,VWS V14.01,2013-07-14 19:34:00,
2013-07-14 15:39:00,90.8,57.7,30.18,West,279,0.0,0.0,33,0.00,,,0.00,VWS V14.01,2013-07-14 19:39:00,
2013-07-14 15:44:00,91.3,57.3,30.18,NW,311,0.0,0.0,32,0.00,,,0.00,VWS V14.01,2013-07-14 19:44:00,
2013-07-14 15:49:00,91.5,57.5,30.18,West,270,0.0,0.0,32,0.00,,,0.00,VWS V14.01,2013-07-14 19:49:00,
2013-07-14 15:54:00,91.3,57.3,30.18,NW,307,0.0,0.0,32,0.00,,,0.00,VWS V14.01,2013-07-14 19:54:00,
2013-07-14 15:59:00,90.6,56.7,30.18,West,266,0.0,0.0,32,0.00,,,0.00,VWS V14.01,2013-07-14 19:59:00,
2013-07-14 16:04:00,90.2,56.4,30.18,West,266,0.0,0.0,32,0.00,,,0.00,VWS V14.01,2013-07-14 20:04:00,
2013-07-14 16:09:00,90.2,56.4,30.18,West,266,0.0,0.0,32,0.00,,,0.00,VWS V14.01,2013-07-14 20:09:00,
2013-07-14 16:14:00,90.2,56.4,30.18,North,353,0.0,2.7,32,0.00,,,0.00,VWS V14.01,2013-07-14 20:14:00,
2013-07-14 16:19:00,90.4,56.6,30.18,NNW,341,0.0,0.0,32,0.00,,,0.00,VWS V14.01,2013-07-14 20:19:00,
2013-07-14 16:24:00,90.6,56.7,30.18,WNW,296,0.0,0.0,32,0.00,,,0.00,VWS V14.01,2013-07-14 20:24:00,
2013-07-14 16:29:00,91.0,56.2,30.18,NW,316,3.1,6.3,31,0.00,,,0.00,VWS V14.01,2013-07-14 20:29:00,
2013-07-14 16:34:00,91.0,56.2,30.18,NNW,341,4.9,4.9,31,0.00,,,0.00,VWS V14.01,2013-07-14 20:34:00,
2013-07-14 16:39:00,90.6,55.8,30.18,WNW,299,0.0,3.6,31,0.00,,,0.00,VWS V14.01,2013-07-14 20:39:00,
2013-07-14 16:44:00,90.6,56.7,30.18,SW,231,0.0,0.0,32,0.00,,,0.00,VWS V14.01,2013-07-14 20:44:00,
2013-07-14 16:49:00,90.4,56.6,30.18,NW,312,0.0,0.0,32,0.00,,,0.00,VWS V14.01,2013-07-14 20:49:00,
2013-07-14 16:54:00,90.6,56.7,30.18,NE,37,0.0,0.0,32,0.00,,,0.00,VWS V14.01,2013-07-14 20:54:00,
2013-07-14 16:59:00,90.6,55.8,30.18,WNW,302,3.1,4.0,31,0.00,,,0.00,VWS V14.01,2013-07-14 20:59:00,
2013-07-14 17:05:00,90.6,56.7,30.18,SW,235,0.0,0.0,32,0.00,,,0.00,VWS V14.01,2013-07-14 21:05:00,
2013-07-14 17:10:00,90.8,56.0,30.18,SW,219,0.0,0.0,31,0.00,,,0.00,VWS V14.01,2013-07-14 21:10:00,
2013-07-14 17:15:00,90.8,55.1,30.18,NNW,339,0.0,2.2,30,0.00,,,0.00,VWS V14.01,2013-07-14 21:15:00,
2013-07-14 17:20:00,90.6,55.8,30.18,SW,232,3.1,4.0,31,0.00,,,0.00,VWS V14.01,2013-07-14 21:20:00,
2013-07-14 17:25:00,90.6,55.8,30.18,NNE,26,2.2,3.1,31,0.00,,,0.00,VWS V14.01,2013-07-14 21:25:00,
2013-07-14 17:30:00,90.6,55.0,30.18,West,265,0.0,0.0,30,0.00,,,0.00,VWS V14.01,2013-07-14 21:30:00,
2013-07-14 17:35:00,90.6,55.8,30.15,WSW,241,0.0,0.0,31,0.00,,,0.00,VWS V14.01,2013-07-14 21:35:00,
2013-07-14 17:40:00,90.8,56.0,30.15,South,176,0.0,0.0,31,0.00,,,0.00,VWS V14.01,2013-07-14 21:40:00,
2013-07-14 17:45:00,90.8,56.0,30.15,SSW,203,0.0,0.0,31,0.00,,,0.00,VWS V14.01,2013-07-14 21:45:00,
2013-07-14 17:50:00,90.6,56.7,30.15,West,259,0.0,0.0,32,0.00,,,0.00,VWS V14.01,2013-07-14 21:50:00,
2013-07-14 17:55:00,90.6,56.7,30.15,West,273,0.0,0.0,32,0.00,,,0.00,VWS V14.01,2013-07-14 21:55:00,
2013-07-14 18:00:00,91.0,56.2,30.15,WSW,247,0.0,0.0,31,0.00,,,0.00,VWS V14.01,2013-07-14 22:00:00,
2013-07-14 18:05:00,91.1,57.2,30.15,WSW,238,0.0,0.0,32,0.00,,,0.00,VWS V14.01,2013-07-14 22:05:00,
2013-07-14 18:10:00,91.3,56.5,30.15,SSW,203,0.0,0.0,31,0.00,,,0.00,VWS V14.01,2013-07-14 22:10:00,
2013-07-14 18:15:00,91.1,56.3,30.15,SW,229,0.0,3.1,31,0.00,,,0.00,VWS V14.01,2013-07-14 22:15:00,
2013-07-14 18:20:00,91.1,57.2,30.15,SW,230,0.0,0.0,32,0.00,,,0.00,VWS V14.01,2013-07-14 22:20:00,
2013-07-14 18:25:00,91.1,56.3,30.15,SW,219,0.0,0.0,31,0.00,,,0.00,VWS V14.01,2013-07-14 22:25:00,
2013-07-14 18:30:00,91.3,57.3,30.15,WNW,289,0.0,0.0,32,0.00,,,0.00,VWS V14.01,2013-07-14 22:30:00,
2013-07-14 18:35:00,91.1,57.2,30.15,WSW,252,0.0,0.0,32,0.00,,,0.00,VWS V14.01,2013-07-14 22:35:00,
2013-07-14 18:40:00,90.6,56.7,30.15,WSW,252,0.0,0.0,32,0.00,,,0.00,VWS V14.01,2013-07-14 22:40:00,
2013-07-14 18:45:00,90.2,56.4,30.15,SW,221,0.0,0.0,32,0.00,,,0.00,VWS V14.01,2013-07-14 22:45:00,
2013-07-14 18:50:00,89.7,56.0,30.15,SSW,199,0.0,0.0,32,0.00,,,0.00,VWS V14.01,2013-07-14 22:50:00,
2013-07-14 18:55:00,89.2,55.5,30.15,West,273,0.0,0.0,32,0.00,,,0.00,VWS V14.01,2013-07-14 22:55:00,
2013-07-14 19:00:00,88.8,56.0,30.15,SW,236,0.0,0.0,33,0.00,,,0.00,VWS V14.01,2013-07-14 23:00:00,
2013-07-14 19:06:00,88.4,55.7,30.15,SW,236,0.0,0.0,33,0.00,,,0.00,VWS V14.01,2013-07-14 23:06:00,
2013-07-14 19:11:00,88.1,56.2,30.15,SW,236,0.0,0.0,34,0.00,,,0.00,VWS V14.01,2013-07-14 23:11:00,
2013-07-14 19:16:00,87.9,56.9,30.15,SW,236,0.0,0.0,35,0.00,,,0.00,VWS V14.01,2013-07-14 23:16:00,
2013-07-14 19:21:00,87.5,56.5,30.15,SW,236,0.0,0.0,35,0.00,,,0.00,VWS V14.01,2013-07-14 23:21:00,
2013-07-14 19:26:00,87.4,56.4,30.15,SW,236,0.0,0.0,35,0.00,,,0.00,VWS V14.01,2013-07-14 23:26:00,
2013-07-14 19:31:00,87.0,56.1,30.15,SSW,194,0.0,0.0,35,0.00,,,0.00,VWS V14.01,2013-07-14 23:31:00,
2013-07-14 19:36:00,86.8,56.7,30.15,SSW,196,0.0,0.0,36,0.00,,,0.00,VWS V14.01,2013-07-14 23:36:00,
2013-07-14 19:41:00,86.5,56.4,30.15,SSW,196,0.0,0.0,36,0.00,,,0.00,VWS V14.01,2013-07-14 23:41:00,
2013-07-14 19:46:00,86.3,56.2,30.15,SSW,196,0.0,0.0,36,0.00,,,0.00,VWS V14.01,2013-07-14 23:46:00,
2013-07-14 19:51:00,85.9,55.9,30.15,SSW,196,0.0,0.0,36,0.00,,,0.00,VWS V14.01,2013-07-14 23:51:00,
2013-07-14 19:56:00,85.6,56.3,30.15,SSW,196,0.0,0.0,37,0.00,,,0.00,VWS V14.01,2013-07-14 23:56:00,
2013-07-14 20:01:00,85.2,56.8,30.15,SSW,196,0.0,0.0,38,0.00,,,0.00,VWS V14.01,2013-07-15 00:01:00,
2013-07-14 20:06:00,84.8,57.2,30.15,SSW,196,0.0,0.0,39,0.00,,,0.00,VWS V14.01,2013-07-15 00:06:00,
2013-07-14 20:11:00,84.7,57.0,30.15,SSW,196,0.0,0.0,39,0.00,,,0.00,VWS V14.01,2013-07-15 00:11:00,
2013-07-14 20:16:00,84.3,57.4,30.15,SSW,196,0.0,0.0,40,0.00,,,0.00,VWS V14.01,2013-07-15 00:16:00,
2013-07-14 20:21:00,84.1,57.9,30.15,SSW,196,0.0,0.0,41,0.00,,,0.00,VWS V14.01,2013-07-15 00:21:00,
2013-07-14 20:26:00,83.8,57.6,30.15,SSW,196,0.0,0.0,41,0.00,,,0.00,VWS V14.01,2013-07-15 00:26:00,
2013-07-14 20:31:00,83.4,58.6,30.15,SSW,196,0.0,0.0,43,0.00,,,0.00,VWS V14.01,2013-07-15 00:31:00,
2013-07-14 20:36:00,83.0,58.3,30.15,SSW,196,0.0,0.0,43,0.00,,,0.00,VWS V14.01,2013-07-15 00:36:00,
2013-07-14 20:41:00,82.9,58.7,30.15,SSW,196,0.0,0.0,44,0.00,,,0.00,VWS V14.01,2013-07-15 00:41:00,
2013-07-14 20:46:00,82.5,58.4,30.15,SSW,196,0.0,0.0,44,0.00,,,0.00,VWS V14.01,2013-07-15 00:46:00,
2013-07-14 20:51:00,82.3,58.9,30.18,SSW,196,0.0,0.0,45,0.00,,,0.00,VWS V14.01,2013-07-15 00:51:00,
2013-07-14 20:56:00,82.1,58.7,30.18,SSW,196,0.0,0.0,45,0.00,,,0.00,VWS V14.01,2013-07-15 00:56:00,
2013-07-14 21:01:00,82.0,58.5,30.18,SSW,196,0.0,0.0,45,0.00,,,0.00,VWS V14.01,2013-07-15 01:01:00,
2013-07-14 21:06:00,81.8,58.4,30.18,SSW,196,0.0,0.0,45,0.00,,,0.00,VWS V14.01,2013-07-15 01:06:00,
2013-07-14 21:12:00,81.6,58.8,30.18,SSW,196,0.0,0.0,46,0.00,,,0.00,VWS V14.01,2013-07-15 01:12:00,
2013-07-14 21:17:00,81.4,59.3,30.18,SSW,196,0.0,0.0,47,0.00,,,0.00,VWS V14.01,2013-07-15 01:17:00,
2013-07-14 21:22:00,81.2,59.1,30.18,SSW,196,0.0,0.0,47,0.00,,,0.00,VWS V14.01,2013-07-15 01:22:00,
2013-07-14 21:27:00,81.1,59.5,30.18,SSW,196,0.0,0.0,48,0.00,,,0.00,VWS V14.01,2013-07-15 01:27:00,
2013-07-14 21:32:00,80.9,59.4,30.18,SSW,196,0.0,0.0,48,0.00,,,0.00,VWS V14.01,2013-07-15 01:32:00,
2013-07-14 21:37:00,80.7,59.8,30.18,SSW,196,0.0,0.0,49,0.00,,,0.00,VWS V14.01,2013-07-15 01:37:00,
2013-07-14 21:42:00,80.5,59.6,30.18,SSW,196,0.0,0.0,49,0.00,,,0.00,VWS V14.01,2013-07-15 01:42:00,
2013-07-14 21:47:00,80.3,59.5,30.18,SSW,196,0.0,0.0,49,0.00,,,0.00,VWS V14.01,2013-07-15 01:47:00,
2013-07-14 21:52:00,80.2,59.9,30.18,SSW,196,0.0,0.0,50,0.00,,,0.00,VWS V14.01,2013-07-15 01:52:00,
2013-07-14 21:57:00,80.0,59.7,30.18,South,176,0.0,0.0,50,0.00,,,0.00,VWS V14.01,2013-07-15 01:57:00,
2013-07-14 22:02:00,80.0,60.2,30.18,South,182,0.0,0.0,51,0.00,,,0.00,VWS V14.01,2013-07-15 02:02:00,
2013-07-14 22:07:00,79.8,60.1,30.18,SSE,151,0.0,0.0,51,0.00,,,0.00,VWS V14.01,2013-07-15 02:07:00,
2013-07-14 22:12:00,79.6,60.5,30.18,SSE,163,0.0,0.0,52,0.00,,,0.00,VWS V14.01,2013-07-15 02:12:00,
2013-07-14 22:17:00,79.4,60.3,30.18,SSW,209,0.0,0.0,52,0.00,,,0.00,VWS V14.01,2013-07-15 02:17:00,
2013-07-14 22:22:00,79.3,60.7,30.18,SSW,198,0.0,0.0,53,0.00,,,0.00,VWS V14.01,2013-07-15 02:22:00,
2013-07-14 22:27:00,79.3,61.2,30.18,South,171,0.0,0.0,54,0.00,,,0.00,VWS V14.01,2013-07-15 02:27:00,
2013-07-14 22:32:00,79.1,61.5,30.18,South,171,0.0,0.0,55,0.00,,,0.00,VWS V14.01,2013-07-15 02:32:00,
2013-07-14 22:37:00,78.9,61.9,30.18,SSW,195,0.0,0.0,56,0.00,,,0.00,VWS V14.01,2013-07-15 02:37:00,
2013-07-14 22:42:00,78.7,61.7,30.18,SSW,195,0.0,0.0,56,0.00,,,0.00,VWS V14.01,2013-07-15 02:42:00,
2013-07-14 22:47:00,78.5,62.0,30.18,SSW,195,0.0,0.0,57,0.00,,,0.00,VWS V14.01,2013-07-15 02:47:00,
2013-07-14 22:52:00,78.4,62.9,30.18,South,189,0.0,0.0,59,0.00,,,0.00,VWS V14.01,2013-07-15 02:52:00,
2013-07-14 22:57:00,78.4,63.3,30.18,SW,217,0.0,3.1,60,0.00,,,0.00,VWS V14.01,2013-07-15 02:57:00,
2013-07-14 23:02:00,78.2,63.6,30.18,SW,228,0.0,0.0,61,0.00,,,0.00,VWS V14.01,2013-07-15 03:02:00,
2013-07-14 23:07:00,78.2,64.1,30.18,SSW,194,0.0,0.0,62,0.00,,,0.00,VWS V14.01,2013-07-15 03:07:00,
2013-07-14 23:12:00,78.2,64.1,30.18,SW,236,0.0,0.0,62,0.00,,,0.00,VWS V14.01,2013-07-15 03:12:00,
2013-07-14 23:17:00,78.2,64.1,30.18,SW,235,0.0,0.0,62,0.00,,,0.00,VWS V14.01,2013-07-15 03:17:00,
2013-07-14 23:23:00,78.0,64.4,30.18,SW,224,0.0,2.7,63,0.00,,,0.00,VWS V14.01,2013-07-15 03:23:00,
2013-07-14 23:28:00,78.0,63.9,30.18,SW,224,0.0,0.0,62,0.00,,,0.00,VWS V14.01,2013-07-15 03:28:00,
2013-07-14 23:33:00,78.0,64.4,30.18,SSE,163,0.0,0.0,63,0.00,,,0.00,VWS V14.01,2013-07-15 03:33:00,
2013-07-14 23:38:00,77.8,64.7,30.18,SW,233,0.0,0.0,64,0.00,,,0.00,VWS V14.01,2013-07-15 03:38:00,
2013-07-14 23:43:00,77.6,64.1,30.18,SW,233,0.0,0.0,63,0.00,,,0.00,VWS V14.01,2013-07-15 03:43:00,
2013-07-14 23:48:00,77.6,64.5,30.18,SW,214,0.0,0.0,64,0.00,,,0.00,VWS V14.01,2013-07-15 03:48:00,
2013-07-14 23:53:00,77.5,64.3,30.18,SSW,201,0.0,0.0,64,0.00,,,0.00,VWS V14.01,2013-07-15 03:53:00,
2013-07-14 23:58:00,77.3,64.2,30.18,South,179,3.6,3.6,64,0.00,,,0.00,VWS V14.01,2013-07-15 03:58:00,